Volver al catálogo

SL-12 DEB

LostHEO
NORAD 25810·DEBRIS·🇷🇺 Russia

Lanzado Sep 16, 1987 desde Baikonur Cosmodrome

Loading…

Próximos Pases (próximas 24 horas)

TLE

ObsoletoSource: Space-Track

Época: Mar 25, 2026, 21:00 UTC

1 25810U 87079V   26084.87527920  .00042846  00000-0  11224-1 0  9992
2 25810  64.2618  69.5240 4151645 346.1198   5.2802  7.01299920555819

Sigue SL-12 DEB en tiempo real con AllMySat

Download on the App Store